EHI
0 0 0 0 0 0 0 0 0 0 0 0 0 0 0 0 0 0 0 0 0 0 0 0 0 0 0 0 0 0 0 0 0 0 0 0 0 0
0 0 0 0 0 0 0 0 0 0 0 0 0 0 0 0 0 0 0 0 0 0 0 0 0 0 0 0 0 0 0 0 0 0 0 0 0 0
0 0 0 0 0 0 0 0 0 0 0 0 0 0 0 0 0 0 0 0 0 0 0 0 0 0 0 0 0 0 0 0 0 0 0 0 0 0
0 0 0 0 0 0 0 0 0 0 0 0 0 0 0 0 0 0 0 0 0 0 0 0 0 0 0 0 0 0 0 0 0 0 0 0 0 0
0 0 0 0 0 0 0 0 0 0 0 0 0 0 0 0 0 0 0 0 0 0 0 0 0 0 0 0 0 0 0 0 0 0 0 0 0 0
0 0 0 0 0 0 0 0 0 0 0 0 0 0 0 0 0 0 0 0 0 0 0 0 0 0 0 0 0 0 0 0 0 0 0 0 0 0
0 0 0 0 0 0 0 0 0 0 0 0 0 0 0 0 0 0 0 0 0 0 0 0 0 0 0 0 0 0 0 0 0 0 0 0 0 0
0 0 0 0 0 0 0 0 0 0 0 0 0 0 0 0 0 0 0 0 0 0 0 0 0 0 0 0 0 0 0 0 0 0 0 0 0 0
0 0 0 0 0 0 0 0 0 0 0 0 0 0 0 0 0 0 0 0 0 0 0 0 0 0 0 0 0 0 0 0 0 0 0 0 0 0
0 0 0 0 0 0 0 0 0 0 0 0 0 0 0 0 0 0 0 0 0 0 0 0 0 0 0 0 0 0 0 0 0 0 0 0 0 0
0 0 0 0 0 0 0 0 0 0 0 0 0 0 0 0 0 0 0 0 0 0 0 0 0 0 0 0 0 0 0 0 0 0 0 0 0 0
0 0 0 0 0 0 0 0 0 0 0 0 0 0 0 0 0 0 0 0 0 0 0 0 0 0 0 0 0 0 0 0 0 0 0 0 0 0
0 0 0 0 0 0 0 0 0 0 0 0 0 0 0 0 0 0 0 0 0 0 0 0 0 0 0 0 0 0 0 0 0 0 0 0 0 0
0 0 0 0 0 0 0 0 0 0 0 0 0 0 0 0 0 0 0 0 0 0 0 0 0 0 0 0 0 0 0 0 0 0 0 0 0 0
0 0 0 0 0 0 0 0 0 0 0 0 0 0 0 0 0 0 0 0 0 0 0 0 0 0 0 0 0 0 0 0 0 0 0 0 0 0
0 0 0 0 0 0 0 0 0 0 0 0 0 0 0 0 0 0 0 0 0 0 0 0 0 0 0 0 0 0 0 0 0 0 0 0 0 0
0 0 0 0 0 0 0 0 0 0 0 0 0 0 0 0 0 0 0 0 0 0 0 0 0 0 0 0 0 0 0 0 0 0 0 0 0 0
0 0 0 0 0 0 0 0 0 0 0 0 0 0 0 0 0 0 0 0 0 0 0 0 0 0 0 0 0 0 0 0 0 0 0 0 0 0
0 0 0 0 0 0 0 0 0 0 0 0 0 0 0 0 0 0 0 0 0 0 0 0 0 0 0 0 0 0 0 0 0 0 0 0 0 0
0 0 0 0 0 0 0 0 0 0 0 0 0 0 0 0 0 0 0 0 0 0 0 0 0 0 0 0 0 0 0 0 0 0 0 0 0 0
0 0 0 0 0 0 0 0 0 0 0 0 0 0 0 0 0 0 0 0 0 0 0 0 0 0 0 0 0 0 0 0 0 0 0 0 0 0
0 0 0 0 0 0 0 0 0 0 0 0 0 0 0 0 0 0 0 0 0 0 0 0 0 0 0 0 0 0 0 0 0 0 0 0 0 0
0 0 0 0 0 0 0 0 0 0 0 0 0 0 0 0 0 0 0 0 0 0 0 0 0 0 0 0 0 0 0 0 0 0 0 0 0 0
Wind_Speed
2 2 2 1 1 1 2 3 4 2 1 2 1 2 0 1 1 2 2 4 5 5 5 6 6 7 7 7 8 8 8 8 8 8 8 9 9 9
2 2 2 1 1 1 1 1 2 3 1 1 1 1 1 2 2 1 1 3 4 4 4 5 5 5 6 6 7 7 7 7 8 8 8 8 8 8
2 3 2 1 2 1 2 2 2 3 2 1 1 2 2 2 1 1 1 1 1 3 3 4 4 4 5 6 7 7 7 7 7 7 8 8 7 7
2 2 1 2 2 1 2 2 2 2 3 2 1 2 1 1 1 1 1 1 0 2 3 3 3 4 5 5 6 6 6 6 6 7 7 7 7 7
2 2 1 2 2 2 2 2 2 2 2 3 1 1 1 1 2 2 2 2 1 2 3 3 3 3 4 4 5 5 4 4 5 6 7 7 7 7
2 2 2 2 2 2 2 2 2 3 3 3 2 1 1 1 2 1 2 2 2 2 3 3 3 3 4 4 4 4 4 4 4 5 6 6 7 7
2 2 2 3 4 3 3 3 3 3 3 2 2 1 1 1 1 0 1 1 2 2 2 2 2 2 3 4 4 4 4 4 4 5 5 5 6 7
3 2 2 3 4 5 6 6 5 5 4 3 1 1 1 1 0 1 0 1 2 2 1 2 1 2 2 2 3 4 4 4 5 5 5 6 6 7
3 2 2 2 3 3 4 5 4 4 5 4 3 2 2 2 1 1 1 1 2 2 0 2 2 2 2 3 4 4 4 5 5 6 6 6 7 8
3 3 3 2 2 3 3 3 2 2 2 2 3 2 2 2 2 2 2 1 1 2 1 1 3 3 3 3 5 5 5 6 6 7 6 7 7 8
2 3 3 3 3 5 5 4 2 2 2 4 3 2 3 2 2 2 2 2 1 2 1 0 2 3 3 3 4 6 6 6 7 8 7 7 7 6
2 2 3 4 5 6 4 4 2 0 1 2 3 3 3 3 3 2 2 1 0 2 2 0 1 2 3 3 2 3 3 6 7 8 8 8 7 3
2 1 1 4 5 5 5 3 3 2 1 2 2 2 2 2 2 1 1 2 2 2 2 1 1 1 1 3 3 2 2 2 3 4 6 8 8 5
3 2 2 4 4 4 3 4 5 4 2 2 2 1 1 1 2 1 1 0 1 2 2 1 1 1 1 2 3 3 3 3 2 3 3 6 7 8
3 5 4 4 4 3 4 4 4 3 2 2 0 1 1 1 1 1 2 1 2 2 1 0 1 1 1 2 3 3 3 3 2 3 3 3 3 3
3 4 5 4 3 3 3 2 2 2 2 1 0 1 1 1 1 1 1 2 2 3 3 2 1 1 1 2 2 3 2 3 3 3 3 3 3 3
4 3 2 2 2 1 1 1 1 1 1 0 1 0 1 1 1 1 1 1 1 2 3 3 3 2 3 2 2 3 3 3 3 3 3 4 4 4
6 3 2 2 2 2 2 1 1 1 1 1 1 1 0 0 1 1 1 1 1 2 2 3 3 3 3 3 4 3 3 3 4 3 3 3 5 5
4 3 3 3 3 2 2 2 2 1 1 1 1 1 1 0 0 1 1 1 1 2 2 2 2 2 3 5 4 2 3 4 3 3 3 3 5 6
3 3 3 3 3 3 3 2 2 1 1 1 1 1 1 1 1 1 1 1 2 2 2 2 2 2 3 4 4 5 5 4 3 4 4 4 5 7
3 3 3 3 3 3 3 2 2 2 2 1 1 1 1 1 1 1 1 2 2 2 2 3 4 5 2 2 3 4 4 5 6 4 4 4 5 4
3 3 3 3 3 3 2 2 2 2 2 2 2 1 1 1 2 2 1 2 2 2 3 3 3 2 1 2 4 5 5 5 6 9 8 6 4 4
3 3 3 3 3 3 2 3 3 2 2 2 2 2 2 2 1 1 2 2 2 2 2 3 2 2 2 3 4 4 6 6 4 4 5 9 11 11
Wind_Direction
116 112 100 91 118 124 137 147 144 141 324 316 338 317 289 95 61 57 55 56 52 49 50 50 46 41 37 36 36 35 35 34 33 32 32 30 27 27
121 102 85 89 88 92 118 109 128 144 162 294 313 313 79 90 87 74 60 56 47 49 50 52 45 39 35 33 36 37 36 33 29 28 27 25 23 21
102 107 92 88 95 90 87 85 89 112 132 345 15 28 57 60 36 38 35 33 27 32 44 46 41 38 36 33 36 38 34 30 26 22 18 16 15 15
108 100 89 88 83 85 88 86 91 107 133 130 27 31 48 62 60 53 32 33 11 22 30 36 43 41 34 35 32 31 29 25 23 19 15 10 8 8
124 120 118 108 88 86 92 89 83 86 96 118 83 25 30 40 41 27 25 4 0 38 32 28 28 27 24 24 22 22 21 23 23 19 15 8 4 2
116 120 122 129 138 128 113 117 107 93 90 98 84 39 21 1 49 30 7 354 351 11 9 15 12 8 4 4 6 12 17 22 20 17 12 5 1 356
97 99 107 117 125 127 129 134 123 111 103 97 86 57 23 19 357 313 3 341 339 354 346 346 350 344 337 336 342 351 360 4 4 3 4 2 357 353
122 104 93 84 93 97 116 125 134 136 139 127 119 122 244 256 286 60 67 33 327 319 13 322 350 314 305 309 325 341 348 350 346 345 348 348 348 347
139 133 119 93 81 88 90 83 87 114 139 146 147 186 198 217 164 106 140 171 247 281 30 308 318 303 298 317 326 327 334 337 336 333 333 336 338 338
128 134 130 122 115 114 105 86 70 62 111 133 160 194 197 198 178 176 183 175 305 317 88 284 306 301 309 309 324 325 327 324 322 322 325 328 331 334
120 128 136 138 139 122 110 103 77 33 62 89 105 96 76 77 104 90 70 72 335 305 327 204 296 306 306 303 317 329 327 324 321 320 323 327 329 330
113 121 135 139 137 132 128 125 120 40 54 53 46 37 36 39 56 104 149 134 201 290 299 321 307 339 324 305 308 319 323 322 324 324 325 327 328 322
143 153 154 137 129 131 131 140 150 137 102 86 58 31 24 22 15 23 97 152 165 246 270 169 265 292 271 297 308 305 310 306 311 313 318 319 320 317
166 175 159 142 131 129 126 125 117 104 90 76 58 26 10 351 339 347 358 356 192 221 252 171 205 235 253 285 292 306 307 301 300 301 302 315 314 312
166 162 151 139 128 115 107 112 111 103 102 95 71 301 286 292 326 349 358 2 348 336 350 248 225 249 225 246 278 294 307 304 300 304 304 303 294 298
144 138 130 117 109 100 88 86 106 129 139 150 207 299 339 358 354 352 351 352 356 329 332 331 297 254 257 261 256 280 280 291 305 301 298 292 287 280
131 104 100 103 105 82 72 73 90 100 119 128 116 38 8 8 340 338 3 15 345 316 324 327 317 290 256 247 263 269 277 284 286 294 299 299 289 284
128 135 153 160 164 170 165 163 152 172 185 166 158 171 189 244 321 341 5 355 319 306 304 310 327 335 330 297 236 253 277 279 288 294 287 288 291 288
138 163 173 179 181 180 181 184 200 207 181 165 178 197 204 233 306 322 328 324 312 307 306 311 329 340 328 315 300 278 285 291 297 293 282 276 280 287
166 176 183 186 185 187 190 195 200 184 168 177 186 198 200 209 258 284 286 290 296 303 312 319 316 309 288 287 289 298 298 289 290 291 289 284 278 287
190 190 188 187 189 189 189 188 185 190 191 186 199 208 206 201 240 258 268 294 294 293 295 293 288 311 301 311 305 299 293 302 307 297 293 294 299 298
190 192 193 188 185 184 184 182 191 199 195 195 207 213 214 214 232 247 261 277 275 273 276 284 302 316 311 298 298 301 304 307 310 315 310 305 300 293
189 184 185 186 183 177 179 187 197 207 201 194 202 215 214 221 235 237 251 259 273 278 287 296 301 291 284 281 289 296 303 308 310 310 301 307 308 301